Location: Saint-Hippolyte
(43.6394°N, 4.7559°E)
Time: 15:46:01
(UTC+00:00)

Cosmos 292 Rocket - Pass Details

Date: 24 October 2020
Orbit: 672 x 695 km, 74.0° (Epoch: 24 November)

Event Time Altitude Azimuth Distance (km) Brightness Sun altitude
Rises 18:00:50 0° 200° (SSW) 3,019 7.4 -14.7°
Reaches altitude 10° 18:03:06 10° 200° (SSW) 2,112 6.6 -15.2°
Maximum altitude 18:07:52 86° 288° (WNW) 691 3.8 -16.0°
Drops below altitude 10° 18:12:43 10° 20° (NNE) 2,143 6.1 -16.9°
Sets 18:15:02 0° 21° (NNE) 3,067 6.9 -17.3°
